When you browse on this site, cookies collect data to enhance your experience and personalize the content and advertising you see.
Visit our Privacy Policy to learn more. By continuing to use the site, you agree to this use of cookies and data.
  • En España
  • Lista de países
  • Para 7 días
  • Temperatura del agua
  • Mapa Satelital
  • El tiempo en el mapa
  • Informadores
  • user-avatar
    Iniciar sesión

    Tiempo cada hora Castelló de la Plana

    Hoy, 16 Diciembre, Domingo

    Tiempo Temperatura Precipitaciones Viento Presión Humedad
    00:00 +15°C° 0 mm 4 mps 762 mmHg 70%
    01:00 +15°C° 0 mm 4 mps 762 mmHg 69%
    02:00 +14°C° 0 mm 4 mps 762 mmHg 69%
    03:00 +14°C° 0 mm 4 mps 762 mmHg 68%
    04:00 +14°C° 0 mm 4 mps 762 mmHg 68%
    05:00 +14°C° 0 mm 4 mps 761 mmHg 67%
    06:00 +13°C° 0 mm 4 mps 761 mmHg 67%
    07:00 +14°C° 0 mm 4 mps 761 mmHg 65%
    08:00 +15°C° 0 mm 4 mps 761 mmHg 63%
    09:00 +15°C° 0 mm 4 mps 761 mmHg 62%
    10:00 +17°C° 0 mm 4 mps 761 mmHg 61%
    11:00 +18°C° 0 mm 4 mps 761 mmHg 60%
    12:00 +19°C° 0 mm 4 mps 761 mmHg 59%
    13:00 +19°C° 0.3 mm 4 mps 761 mmHg 61%
    14:00 +18°C° 0.3 mm 4 mps 761 mmHg 63%
    15:00 +18°C° 0.3 mm 4 mps 761 mmHg 65%
    16:00 +16°C° 0 mm 5 mps 761 mmHg 66%
    17:00 +16°C° 0 mm 5 mps 761 mmHg 66%
    18:00 +15°C° 0 mm 6 mps 762 mmHg 66%
    19:00 +15°C° 0 mm 6 mps 762 mmHg 64%
    20:00 +14°C° 0 mm 6 mps 763 mmHg 63%
    21:00 +14°C° 0 mm 7 mps 763 mmHg 61%
    22:00 +13°C° 0 mm 6 mps 764 mmHg 61%
    23:00 +13°C° 0 mm 6 mps 765 mmHg 62%

    Mañana, 17 Diciembre, Lunes

    Tiempo Temperatura Precipitaciones Viento Presión Humedad
    00:00 +11°C° 0 mm 6 mps 765 mmHg 62%
    01:00 +11°C° 0 mm 6 mps 765 mmHg 62%
    02:00 +12°C° 0 mm 5 mps 766 mmHg 62%
    03:00 +11°C° 0 mm 4 mps 766 mmHg 62%
    04:00 +11°C° 0 mm 4 mps 766 mmHg 63%
    05:00 +10°C° 0 mm 4 mps 767 mmHg 63%
    06:00 +10°C° 0 mm 4 mps 767 mmHg 63%
    07:00 +11°C° 0 mm 4 mps 767 mmHg 60%
    08:00 +11°C° 0 mm 4 mps 768 mmHg 56%
    09:00 +12°C° 0 mm 4 mps 768 mmHg 53%
    10:00 +13°C° 0 mm 3 mps 768 mmHg 47%
    11:00 +14°C° 0 mm 3 mps 768 mmHg 40%
    12:00 +17°C° 0 mm 2 mps 768 mmHg 34%
    13:00 +17°C° 0 mm 2 mps 768 mmHg 34%
    14:00 +17°C° 0 mm 2 mps 767 mmHg 35%
    15:00 +18°C° 0 mm 1 mps 767 mmHg 35%
    16:00 +15°C° 0 mm 1 mps 767 mmHg 40%
    17:00 +14°C° 0 mm 1 mps 768 mmHg 45%
    18:00 +13°C° 0 mm 1 mps 768 mmHg 50%
    19:00 +12°C° 0 mm 1 mps 768 mmHg 52%
    20:00 +12°C° 0 mm 1 mps 768 mmHg 53%
    21:00 +12°C° 0 mm 2 mps 769 mmHg 54%
    22:00 +12°C° 0 mm 2 mps 768 mmHg 55%
    23:00 +12°C° 0 mm 2 mps 768 mmHg 55%

    Pasado mañana, 18 Diciembre, Martes

    Tiempo Temperatura Precipitaciones Viento Presión Humedad
    00:00 +10°C° 0 mm 2 mps 768 mmHg 56%
    01:00 +10°C° 0 mm 2 mps 768 mmHg 57%
    02:00 +10°C° 0 mm 2 mps 768 mmHg 58%
    03:00 +10°C° 0 mm 2 mps 768 mmHg 60%
    04:00 +10°C° 0 mm 2 mps 767 mmHg 61%
    05:00 +10°C° 0 mm 2 mps 767 mmHg 62%
    06:00 +10°C° 0 mm 2 mps 767 mmHg 62%
    07:00 +10°C° 0 mm 2 mps 767 mmHg 60%
    08:00 +11°C° 0 mm 3 mps 767 mmHg 58%
    09:00 +12°C° 0 mm 3 mps 767 mmHg 55%
    10:00 +13°C° 0 mm 3 mps 766 mmHg 56%
    11:00 +14°C° 0 mm 4 mps 766 mmHg 58%
    12:00 +15°C° 0 mm 4 mps 765 mmHg 59%
    13:00 +15°C° 0 mm 4 mps 765 mmHg 61%
    14:00 +15°C° 0 mm 5 mps 764 mmHg 64%
    15:00 +15°C° 0 mm 5 mps 764 mmHg 66%
    16:00 +14°C° 0 mm 5 mps 764 mmHg 71%
    17:00 +14°C° 0 mm 4 mps 764 mmHg 76%
    18:00 +13°C° 0 mm 4 mps 764 mmHg 82%
    19:00 +13°C° 0 mm 4 mps 764 mmHg 81%
    20:00 +13°C° 0 mm 4 mps 764 mmHg 80%
    21:00 +13°C° 0 mm 4 mps 764 mmHg 80%
    22:00 +13°C° 0 mm 3 mps 763 mmHg 78%
    23:00 +13°C° 0 mm 3 mps 763 mmHg 76%

    19 Diciembre, Miércoles

    Tiempo Temperatura Precipitaciones Viento Presión Humedad
    00:00 +13°C° 0 mm 3 mps 763 mmHg 75%
    01:00 +13°C° 0 mm 3 mps 762 mmHg 74%
    02:00 +13°C° 0 mm 3 mps 762 mmHg 73%
    03:00 +13°C° 0 mm 3 mps 762 mmHg 72%
    04:00 +13°C° 0 mm 4 mps 762 mmHg 72%
    05:00 +13°C° 0 mm 4 mps 762 mmHg 71%
    06:00 +13°C° 0 mm 4 mps 762 mmHg 71%
    07:00 +13°C° 0 mm 5 mps 762 mmHg 70%
    08:00 +14°C° 0 mm 5 mps 762 mmHg 68%
    09:00 +14°C° 0 mm 5 mps 763 mmHg 67%
    10:00 +15°C° 0 mm 5 mps 763 mmHg 56%
    11:00 +16°C° 0 mm 5 mps 763 mmHg 46%
    12:00 +17°C° 0 mm 5 mps 763 mmHg 35%
    13:00 +18°C° 0 mm 4 mps 762 mmHg 35%
    14:00 +18°C° 0 mm 4 mps 762 mmHg 35%
    15:00 +18°C° 0 mm 4 mps 762 mmHg 35%
    16:00 +17°C° 0 mm 4 mps 763 mmHg 39%
    17:00 +15°C° 0 mm 4 mps 763 mmHg 43%
    18:00 +14°C° 0 mm 4 mps 764 mmHg 47%
    19:00 +13°C° 0 mm 5 mps 764 mmHg 49%
    20:00 +13°C° 0 mm 5 mps 765 mmHg 51%
    21:00 +11°C° 0 mm 6 mps 765 mmHg 53%
    22:00 +12°C° 0 mm 5 mps 766 mmHg 54%
    23:00 +12°C° 0 mm 5 mps 766 mmHg 55%

    20 Diciembre, Jueves

    Tiempo Temperatura Precipitaciones Viento Presión Humedad
    00:00 +12°C° 0 mm 5 mps 766 mmHg 56%
    01:00 +10°C° 0 mm 5 mps 766 mmHg 58%
    02:00 +10°C° 0 mm 5 mps 766 mmHg 59%
    03:00 +11°C° 0 mm 4 mps 766 mmHg 61%
    04:00 +11°C° 0 mm 4 mps 766 mmHg 61%
    05:00 +10°C° 0 mm 4 mps 767 mmHg 62%
    06:00 +10°C° 0 mm 4 mps 767 mmHg 63%
    07:00 +11°C° 0 mm 4 mps 767 mmHg 61%
    08:00 +11°C° 0 mm 3 mps 768 mmHg 59%
    09:00 +11°C° 0 mm 3 mps 768 mmHg 57%
    10:00 +12°C° 0 mm 3 mps 768 mmHg 51%
    11:00 +14°C° 0 mm 3 mps 767 mmHg 45%
    12:00 +16°C° 0 mm 2 mps 767 mmHg 39%
    13:00 +16°C° 0 mm 2 mps 767 mmHg 39%
    14:00 +16°C° 0 mm 2 mps 767 mmHg 40%
    15:00 +16°C° 0 mm 2 mps 766 mmHg 40%
    16:00 +15°C° 0 mm 2 mps 767 mmHg 45%
    17:00 +14°C° 0 mm 1 mps 767 mmHg 50%
    18:00 +12°C° 0 mm 1 mps 768 mmHg 56%
    19:00 +12°C° 0 mm 1 mps 768 mmHg 57%
    20:00 +12°C° 0 mm 1 mps 769 mmHg 57%
    21:00 +12°C° 0 mm 1 mps 769 mmHg 58%
    22:00 +10°C° 0 mm 2 mps 769 mmHg 59%
    23:00 +10°C° 0 mm 2 mps 769 mmHg 60%

    21 Diciembre, Viernes

    Tiempo Temperatura Precipitaciones Viento Presión Humedad
    00:00 +10°C° 0 mm 2 mps 769 mmHg 61%
    01:00 +10°C° 0 mm 2 mps 769 mmHg 60%
    02:00 +10°C° 0 mm 2 mps 769 mmHg 59%
    03:00 +9°C° 0 mm 2 mps 769 mmHg 59%
    04:00 +9°C° 0 mm 2 mps 769 mmHg 58%
    05:00 +9°C° 0 mm 2 mps 769 mmHg 57%
    06:00 +10°C° 0 mm 1 mps 769 mmHg 56%
    07:00 +10°C° 0 mm 2 mps 769 mmHg 53%
    08:00 +12°C° 0 mm 2 mps 769 mmHg 50%
    09:00 +13°C° 0 mm 2 mps 769 mmHg 47%
    10:00 +14°C° 0 mm 2 mps 769 mmHg 44%
    11:00 +15°C° 0 mm 2 mps 769 mmHg 41%
    12:00 +17°C° 0 mm 3 mps 768 mmHg 39%
    13:00 +17°C° 0 mm 3 mps 768 mmHg 41%
    14:00 +17°C° 0 mm 3 mps 768 mmHg 43%
    15:00 +18°C° 0 mm 3 mps 767 mmHg 45%
    16:00 +16°C° 0 mm 3 mps 767 mmHg 50%
    17:00 +14°C° 0 mm 3 mps 768 mmHg 55%
    18:00 +13°C° 0 mm 3 mps 768 mmHg 60%
    19:00 +13°C° 0 mm 3 mps 768 mmHg 61%
    20:00 +13°C° 0 mm 3 mps 768 mmHg 62%
    21:00 +13°C° 0 mm 3 mps 769 mmHg 63%
    22:00 +14°C° 0 mm 2 mps 768 mmHg 64%
    23:00 +14°C° 0 mm 2 mps 768 mmHg 64%
    Mostrar más